User: anonymous   Login
Location: Langangen
(59.1000°N, 9.8000°E)
Time: 03:50:13
(UTC+02:00)
Language:

Iridium 60 - Orbit

View from above orbital plane
View from above orbital plane
View from above satellite
View from above satellite

Ground track
Ground track

The orbit data is extracted from the following two-line orbital elements,

1 25276U 98019E   16180.24677016  .00000154  00000-0  48027-4 0  9993
2 25276  86.3965  74.9861 0002286  85.0193 275.1263 14.34214760955333
Epoch (UTC): 28 June 2016 05:55:20
Eccentricity: 0.0002286
inclination: 86.3965°
perigee height: 776 km
apogee height: 779 km
right ascension of ascending node: 74.9861°
argument of perigee: 85.0193°
revolutions per day: 14.34214760
mean anomaly at epoch: 275.1263°
orbit number at epoch: 95533

The dashed part of the orbit path shows where the satellite is in the earth's shadow,  

DLR